Temp
47 47 44 48 46 44 43 40 41 43 46 44 44 45 52 55 44 46 44 42 43 45 49 44 44 43 42 42 42 43 43 43 43 42 41 40 40 40 40 41 41 40 40 39
45 44 48 48 45 44 42 40 40 42 42 42 41 42 49 51 53 55 50 44 44 44 42 42 42 41 41 41 41 41 42 42 42 41 40 40 40 39 39 40 39 39 38 38
43 46 46 47 41 42 40 39 38 41 40 39 37 37 39 46 47 50 49 48 45 45 42 42 40 40 40 40 40 41 41 41 41 40 39 38 38 37 37 38 37 37 37 36
44 45 46 42 43 43 38 41 39 38 36 33 38 36 38 45 48 48 48 43 45 43 44 43 42 40 39 40 40 40 40 40 40 39 37 35 35 34 35 35 36 35 35 35
45 41 40 41 43 44 41 40 39 37 34 30 32 28 38 37 41 49 51 45 43 42 43 42 41 42 40 40 39 39 38 38 38 37 36 35 33 33 34 33 32 33 33 34
42 42 44 44 40 40 41 39 36 31 30 22 35 34 35 36 42 47 47 47 45 40 40 43 43 42 40 39 38 37 36 36 37 36 35 33 32 31 30 31 30 31 32 32
38 40 40 42 40 39 39 37 29 26 23 28 27 26 43 42 43 48 50 47 43 40 38 39 39 38 39 37 37 35 35 34 35 34 33 32 31 30 29 29 29 28 29 30
38 41 39 41 44 40 36 38 30 23 21 35 22 26 42 42 49 43 42 41 40 39 37 38 39 39 40 37 36 36 34 33 33 32 31 31 30 29 29 28 28 28 27 28
36 37 37 38 39 41 35 32 36 26 9 19 35 37 40 41 41 39 39 38 39 39 36 37 38 40 39 37 36 35 33 33 31 31 30 29 28 27 27 27 27 26 27 27
45 39 37 36 37 35 36 38 30 28 22 15 31 37 43 41 44 43 40 40 41 38 35 36 37 37 38 37 35 34 33 31 30 29 28 28 27 26 26 25 25 25 25 25
45 44 36 35 33 33 32 32 32 33 28 22 24 40 41 45 45 45 46 42 40 38 35 36 36 37 37 35 33 31 30 29 28 28 27 26 25 25 24 24 23 23 24 23
42 40 36 33 30 32 33 37 38 31 28 23 23 37 45 45 43 43 44 41 40 38 36 35 35 34 33 34 30 29 28 27 27 26 25 24 23 23 22 21 22 22 21 22
43 36 29 35 30 31 32 33 36 33 28 33 25 36 48 43 42 43 41 38 39 38 34 32 33 32 34 32 29 27 26 25 25 23 22 21 20 20 20 20 20 20 19 19
49 37 37 38 42 35 29 31 35 37 34 35 35 40 48 52 50 48 40 36 40 38 36 33 32 33 35 31 27 25 24 24 22 21 19 19 19 19 19 18 18 17 18 17
43 35 38 42 44 37 35 35 35 32 36 34 40 39 45 51 51 52 54 53 45 35 33 33 32 32 31 27 26 24 22 21 20 18 17 17 18 18 17 16 16 16 16 15
36 34 36 36 40 34 33 36 40 39 39 37 39 38 51 55 55 53 53 52 49 39 36 35 34 32 28 29 24 24 19 18 18 16 16 16 15 15 14 14 13 13 13 13
33 34 30 28 37 34 25 36 40 42 45 42 36 43 50 48 49 49 50 51 49 47 36 34 33 32 30 28 26 19 18 17 15 16 15 13 12 10 11 11 10 10 10 10
36 34 32 27 29 20 36 45 44 40 43 45 45 47 50 50 52 52 47 47 46 41 35 34 33 31 29 24 20 17 16 16 15 13 10 10 10 8 8 8 8 8 9 9
40 36 29 25 26 33 35 40 35 34 38 47 45 47 49 51 40 44 42 42 46 41 35 33 31 27 21 19 17 15 15 15 13 11 10 9 8 5 5 2 5 7 7 7
38 38 31 28 23 22 36 45 47 36 31 49 50 48 49 45 34 45 46 39 34 32 30 26 24 21 19 15 16 15 13 12 10 10 9 8 6 2 1 3 3 5 3 5
25 30 28 28 26 31 41 44 40 29 38 53 50 49 48 43 47 48 30 28 28 27 24 23 21 19 15 15 15 14 12 10 10 8 6 5 4 1 0 1 2 2 2 5
34 28 27 29 26 24 42 37 35 46 53 52 51 43 42 44 48 34 29 25 23 20 21 20 17 14 14 15 14 12 10 9 7 5 4 1 -1 -2 2 -4 -1 0 1 1
34 40 39 37 35 42 43 46 49 52 50 51 43 39 46 44 39 30 27 23 21 20 18 18 14 12 12 13 14 11 8 8 4 0 -2 -2 -1 -0 -1 -4 -1 0 1 3
41 46 40 40 45 39 39 44 49 50 48 50 41 39 38 42 34 28 25 22 20 18 17 15 12 10 8 10 11 9 7 5 -3 -3 1 2 1 -1 -0 1 3 -0 3 4
38 36 38 37 41 46 48 47 47 45 40 37 36 38 40 38 31 29 24 21 19 17 16 14 14 11 8 6 4 4 3 0 -2 -0 2 -0 -0 -5 -1 2 -0 4 7 11
41 38 35 36 46 45 47 50 50 47 46 45 43 36 35 38 35 29 24 21 19 16 14 14 13 10 6 5 2 -1 -2 -1 2 1 -1 -2 -2 -3 -1 -2 -1 6 10 13
MSLP
1017.06 1017.68 1017.37 1017.17 1017.43 1017.35 1017.69 1018.14 1018.23 1017.54 1017.47 1017.89 1017.00 1016.45 1015.64 1014.73 1015.23 1014.92 1014.81 1015.71 1016.42 1016.58 1017.49 1018.52 1019.30 1019.93 1020.68 1021.18 1021.52 1021.83 1022.29 1022.66 1023.09 1023.55 1023.90 1024.17 1024.11 1024.11 1023.80 1023.72 1023.76 1023.85 1023.88 1023.73
1017.66 1017.12 1016.07 1016.75 1017.20 1017.62 1018.03 1018.45 1018.21 1017.86 1017.87 1018.27 1017.23 1015.95 1014.73 1014.26 1013.03 1012.96 1013.10 1014.30 1014.98 1016.09 1016.89 1017.68 1018.64 1019.73 1020.32 1020.75 1021.12 1021.52 1021.80 1022.20 1022.63 1023.03 1023.40 1023.65 1023.83 1023.70 1023.52 1023.38 1023.53 1023.57 1023.53 1023.12
1017.37 1016.25 1016.11 1016.59 1017.41 1017.97 1018.21 1018.42 1018.29 1018.38 1018.42 1018.38 1017.88 1015.11 1013.83 1012.45 1012.14 1011.49 1011.81 1012.48 1013.53 1014.28 1015.45 1016.56 1017.50 1018.19 1019.27 1020.02 1020.45 1020.82 1021.23 1021.73 1022.18 1022.57 1023.12 1023.54 1023.71 1023.58 1023.36 1023.21 1023.27 1023.19 1022.99 1022.66
1017.00 1015.98 1016.24 1016.85 1017.32 1017.73 1018.39 1017.72 1018.33 1018.93 1019.58 1019.64 1018.70 1014.64 1013.90 1012.58 1011.75 1011.02 1010.67 1011.76 1012.38 1013.23 1014.36 1015.32 1016.39 1017.56 1018.26 1018.94 1019.75 1020.33 1020.77 1021.12 1021.51 1022.01 1022.64 1023.05 1023.31 1023.37 1023.33 1023.46 1023.40 1023.07 1022.72 1022.52
1015.40 1015.89 1016.56 1016.90 1016.74 1017.17 1017.66 1017.97 1018.92 1019.47 1019.96 1020.17 1019.06 1018.22 1012.89 1012.75 1012.06 1010.36 1009.52 1010.41 1011.45 1012.43 1013.41 1014.27 1015.17 1016.06 1017.14 1018.24 1019.06 1019.79 1020.41 1020.84 1021.28 1021.77 1022.14 1022.65 1023.10 1023.34 1023.04 1023.14 1022.97 1022.79 1022.41 1022.08
1015.85 1015.90 1016.17 1016.26 1016.98 1017.26 1017.86 1018.59 1019.51 1020.30 1020.54 1019.66 1016.99 1016.80 1012.48 1012.13 1010.70 1010.02 1009.42 1009.82 1010.88 1012.09 1013.02 1013.72 1014.56 1015.61 1016.46 1017.36 1018.19 1019.09 1019.88 1020.54 1021.09 1021.51 1021.94 1022.43 1022.70 1022.70 1022.84 1022.74 1022.86 1022.60 1022.37 1021.88
1015.73 1015.69 1015.78 1016.07 1017.16 1017.89 1018.16 1019.17 1020.43 1020.62 1020.75 1018.18 1016.72 1016.37 1010.81 1010.38 1009.35 1008.77 1009.14 1009.61 1010.64 1011.67 1012.56 1013.23 1013.97 1014.95 1015.94 1016.59 1017.48 1018.37 1018.96 1019.56 1020.21 1021.10 1021.84 1022.03 1022.20 1022.43 1022.74 1022.74 1022.75 1022.32 1021.59 1021.50
1015.61 1015.15 1015.38 1015.50 1015.89 1016.68 1017.99 1018.55 1019.86 1019.96 1020.44 1017.64 1016.42 1013.18 1008.40 1008.21 1007.81 1008.32 1009.02 1009.77 1010.55 1011.20 1012.04 1012.57 1013.13 1013.94 1014.69 1015.70 1016.81 1017.67 1018.51 1019.38 1019.98 1020.45 1020.96 1021.66 1022.14 1022.02 1022.20 1022.35 1021.88 1021.75 1021.65 1021.57
1014.31 1014.10 1014.78 1015.36 1015.73 1016.43 1017.95 1018.27 1017.77 1019.07 1020.64 1018.65 1013.40 1009.37 1007.94 1007.38 1007.62 1008.30 1008.71 1009.71 1010.17 1010.68 1011.58 1012.17 1012.82 1013.22 1014.14 1015.09 1016.01 1017.00 1017.92 1018.62 1019.28 1020.02 1020.79 1021.45 1021.77 1021.96 1021.89 1021.68 1021.74 1021.40 1021.50 1021.17
1012.17 1013.83 1014.49 1015.58 1015.83 1016.44 1016.46 1016.92 1018.03 1018.73 1019.21 1017.39 1011.54 1007.65 1005.98 1006.60 1006.62 1007.32 1008.35 1008.68 1009.16 1009.99 1010.95 1011.68 1012.15 1012.77 1013.63 1014.22 1015.23 1016.34 1017.13 1017.95 1018.78 1019.47 1020.06 1020.52 1021.11 1021.22 1021.16 1021.13 1021.10 1020.81 1020.36 1019.95
1011.84 1012.81 1014.53 1015.40 1015.08 1014.69 1016.58 1016.55 1016.98 1017.04 1016.67 1015.48 1012.57 1003.52 1003.16 1003.70 1004.65 1006.03 1006.42 1006.97 1008.16 1009.21 1009.94 1010.66 1011.28 1012.16 1013.05 1013.77 1014.60 1015.84 1016.79 1017.80 1018.68 1019.36 1019.77 1020.14 1020.36 1020.37 1020.46 1020.57 1020.11 1019.98 1019.76 1019.34
1011.68 1012.05 1013.41 1012.93 1013.32 1013.60 1013.99 1014.06 1014.69 1015.20 1014.58 1013.77 1012.15 1003.09 1001.31 1002.62 1003.93 1004.89 1005.60 1006.59 1007.45 1008.45 1009.10 1009.81 1010.65 1011.47 1012.25 1012.94 1014.10 1015.43 1016.52 1017.37 1018.11 1018.53 1019.08 1019.54 1019.81 1019.87 1019.75 1019.59 1019.62 1019.32 1018.87 1018.59
1010.81 1011.54 1012.51 1012.30 1013.63 1013.66 1013.45 1013.29 1012.83 1012.40 1011.78 1009.50 1010.59 1001.78 1001.73 1001.90 1002.55 1003.63 1004.94 1006.33 1006.86 1007.40 1008.38 1009.19 1010.08 1010.43 1011.12 1012.09 1013.64 1014.95 1015.77 1016.39 1017.58 1018.20 1018.63 1019.11 1019.47 1019.35 1019.32 1018.94 1018.59 1018.30 1017.97 1017.66
1009.44 1009.96 1010.40 1009.74 1009.06 1010.23 1011.63 1011.44 1010.78 1010.47 1009.25 1007.53 1005.21 1002.38 1000.35 1000.30 1002.35 1003.10 1004.10 1004.95 1005.26 1006.23 1007.04 1008.04 1009.07 1009.47 1010.27 1011.65 1012.85 1014.56 1015.74 1016.26 1017.24 1017.94 1018.30 1018.58 1018.84 1018.88 1018.67 1018.62 1018.21 1017.77 1017.72 1017.48
1010.30 1010.13 1009.74 1009.01 1008.33 1009.18 1009.38 1009.74 1008.62 1008.72 1005.09 1005.84 1003.31 1004.15 998.70 999.42 1001.67 1001.30 1002.04 1002.59 1003.46 1004.78 1005.90 1006.73 1007.63 1008.42 1009.68 1011.26 1012.75 1014.29 1015.49 1016.21 1017.02 1017.66 1018.02 1018.23 1018.40 1018.63 1018.39 1018.22 1018.08 1017.79 1017.56 1017.01
1010.55 1009.74 1009.71 1008.85 1008.47 1009.00 1009.10 1007.82 1006.44 1006.07 1003.37 1004.74 1004.35 1002.13 996.91 999.90 1000.58 1000.07 1000.18 1000.95 1001.99 1003.09 1003.92 1005.14 1006.47 1007.66 1008.86 1010.03 1011.84 1013.54 1015.07 1016.16 1016.55 1017.14 1017.48 1017.81 1018.37 1018.28 1018.31 1018.40 1018.33 1017.98 1017.32 1016.93
1010.50 1010.45 1009.95 1008.09 1008.30 1009.01 1008.57 1003.59 1005.10 1003.41 1001.83 1003.22 1001.92 997.44 998.66 999.30 999.80 998.46 999.11 1000.19 1000.12 1000.95 1002.29 1003.87 1005.02 1005.95 1007.58 1009.21 1010.99 1013.01 1014.69 1015.71 1016.46 1016.85 1017.49 1018.15 1018.44 1018.41 1018.35 1018.31 1018.13 1017.39 1017.12 1016.65
1008.68 1009.18 1009.27 1007.39 1008.61 1006.72 1003.33 1003.80 1003.69 1001.71 1000.78 1000.97 999.25 997.74 997.50 997.20 997.17 996.71 998.48 998.72 999.19 999.99 1001.31 1002.75 1004.00 1005.65 1007.42 1009.15 1011.06 1012.68 1014.24 1015.17 1015.91 1016.73 1017.51 1017.74 1018.34 1018.52 1018.38 1018.25 1017.96 1017.57 1017.11 1016.34
1005.99 1007.05 1007.08 1006.91 1005.36 1003.69 1003.57 1001.16 1001.30 1000.04 1000.13 997.58 998.86 996.93 995.61 995.67 997.22 994.72 997.54 997.66 998.32 999.25 1000.51 1001.87 1003.24 1005.08 1007.14 1008.83 1010.92 1012.71 1014.21 1015.14 1015.81 1016.67 1017.20 1017.62 1018.06 1018.38 1018.35 1018.20 1017.67 1017.13 1016.75 1016.04
1003.84 1003.18 1004.55 1004.66 1003.40 1001.84 1000.05 998.58 999.50 999.59 999.16 994.66 995.37 995.10 994.95 995.87 997.55 994.93 996.26 997.22 998.37 999.54 1000.66 1002.24 1003.97 1005.64 1007.51 1009.41 1010.90 1012.41 1013.93 1015.07 1015.64 1016.11 1016.75 1017.21 1017.56 1017.97 1018.12 1018.11 1017.70 1016.94 1016.70 1015.86
1002.57 1002.38 1001.76 1000.27 999.70 998.27 998.26 997.65 998.89 998.94 992.52 990.78 992.02 992.83 993.81 995.43 995.15 994.83 996.53 997.83 998.95 1000.40 1001.58 1003.04 1004.62 1006.07 1007.72 1009.35 1010.89 1012.40 1013.70 1014.75 1015.40 1016.04 1016.62 1017.03 1017.66 1017.90 1018.06 1017.92 1017.54 1016.96 1016.24 1015.03
998.05 998.78 998.49 998.93 997.85 996.03 995.36 996.68 996.10 990.51 989.01 989.82 990.45 991.73 992.33 993.11 994.04 995.81 997.16 998.54 999.30 1000.08 1001.88 1003.41 1005.31 1006.68 1008.12 1008.86 1010.01 1011.80 1013.47 1014.74 1015.61 1016.15 1016.56 1017.15 1017.60 1017.66 1017.49 1017.81 1017.26 1016.42 1015.79 1014.67
994.90 993.38 992.66 993.49 992.11 991.90 991.15 990.72 990.14 989.84 990.33 989.39 990.14 990.63 991.50 992.91 994.04 995.38 997.28 998.93 1000.14 1000.85 1002.20 1003.41 1005.54 1007.02 1008.52 1008.60 1009.02 1010.61 1012.03 1013.43 1014.42 1015.64 1016.38 1016.85 1017.16 1016.88 1016.80 1016.45 1016.01 1016.01 1015.30 1014.12
991.41 991.62 991.35 991.45 990.52 990.31 990.07 989.45 989.09 989.01 989.34 988.71 989.64 990.27 991.10 992.04 993.49 995.43 997.02 998.70 999.96 1001.59 1003.18 1004.06 1005.66 1007.25 1008.33 1009.28 1009.51 1010.72 1012.32 1013.17 1013.97 1014.91 1015.59 1016.15 1016.33 1016.63 1016.50 1016.00 1015.71 1015.61 1014.82 1013.51
991.57 991.05 990.66 990.40 990.26 989.89 988.88 988.40 988.50 988.70 989.15 989.06 989.27 990.10 990.48 991.62 992.97 994.32 996.35 997.86 998.99 1000.40 1002.60 1004.06 1005.28 1007.32 1008.14 1008.85 1010.42 1011.32 1012.60 1013.75 1014.72 1014.98 1015.31 1016.29 1016.35 1016.44 1016.32 1015.76 1015.77 1015.14 1014.32 1013.18
992.43 990.76 989.85 987.74 988.37 987.96 986.53 987.39 987.69 988.07 988.30 988.09 989.00 989.66 989.62 990.53 991.66 993.07 995.52 997.22 998.13 999.39 1001.40 1003.54 1004.77 1006.91 1008.64 1009.29 1010.40 1012.55 1013.48 1014.35 1014.62 1014.88 1015.40 1015.85 1016.28 1016.30 1016.51 1016.10 1015.25 1014.88 1013.85 1013.23
Wind_Speed
1 2 10 13 9 3 3 4 7 5 4 4 10 15 19 19 9 16 15 13 16 21 12 11 13 12 10 9 9 9 8 7 4 2 2 2 3 3 3 3 5 7 7 7
4 12 9 5 4 5 4 4 8 7 1 6 9 18 18 17 21 18 18 13 17 12 12 15 15 13 13 13 11 9 8 8 7 4 3 2 2 3 4 4 5 6 8 8
9 4 6 7 4 6 5 7 5 8 6 4 8 11 8 6 7 13 11 11 12 17 18 17 19 18 14 14 13 12 10 9 7 7 3 1 2 3 3 4 5 6 9 10
8 2 7 4 6 8 4 6 2 3 3 5 4 17 3 7 11 9 9 10 13 14 13 16 19 18 17 15 11 11 9 9 8 9 6 5 4 3 3 3 6 9 9 10
9 8 5 5 9 9 7 3 4 1 3 3 4 6 5 4 8 17 10 10 10 11 15 17 20 21 18 15 13 11 9 7 6 7 6 5 5 5 6 6 9 10 10 9
6 1 6 7 3 2 6 4 4 4 2 2 9 10 6 7 10 9 7 6 7 8 11 12 15 16 16 13 13 11 10 7 7 7 6 6 7 7 6 6 7 7 7 7
1 5 3 4 5 3 3 6 6 7 3 11 5 3 15 7 12 13 11 7 7 7 10 12 16 16 16 17 14 12 11 9 8 6 5 6 7 6 7 8 7 9 7 8
6 11 10 6 8 9 7 10 9 10 5 15 2 11 11 16 13 7 7 7 6 7 9 13 16 17 18 18 15 13 12 7 7 6 5 4 4 4 5 7 7 7 8 9
8 11 2 2 3 3 6 7 3 5 2 3 7 14 6 7 10 7 11 7 11 9 10 12 13 16 17 17 16 14 12 8 8 6 3 3 3 4 6 9 8 7 9 9
6 5 3 3 3 1 6 6 4 2 3 7 13 25 19 10 16 11 12 15 14 7 9 11 13 14 14 15 13 13 10 9 7 6 4 2 3 5 6 7 9 10 11 12
6 7 4 4 12 14 5 4 2 3 5 7 10 24 5 8 10 11 14 10 10 10 11 13 12 12 13 12 12 12 9 9 7 5 3 2 4 5 5 7 8 10 12 13
8 5 9 15 1 1 3 12 13 7 9 6 2 33 2 1 7 7 8 8 6 8 11 11 12 13 14 16 13 12 9 9 7 6 4 3 3 4 6 8 9 10 12 13
10 5 2 9 2 4 7 9 9 2 1 21 8 31 5 7 8 9 8 8 10 10 9 10 11 16 18 15 13 12 10 9 8 6 3 2 3 5 7 8 9 10 12 13
14 7 12 22 18 7 7 9 19 21 19 16 30 32 39 30 21 12 8 10 13 12 13 13 12 16 15 13 14 11 9 9 8 6 4 3 4 6 7 8 9 10 12 14
8 11 13 22 25 6 4 8 18 21 31 23 27 22 42 30 21 25 19 21 12 12 12 16 16 15 13 13 13 10 8 9 8 6 4 4 5 6 6 8 9 10 12 12
1 9 7 24 23 6 6 22 25 25 35 21 22 35 43 28 21 27 25 21 21 14 16 16 15 15 16 18 15 13 10 9 8 6 5 4 3 5 7 8 10 11 12 13
7 8 9 25 21 10 5 36 29 36 34 21 30 42 30 29 26 32 26 24 25 19 13 14 18 18 16 17 16 13 11 9 8 6 4 1 3 5 7 8 10 10 12 12
19 16 12 18 8 19 22 20 24 33 31 20 29 32 30 31 28 30 11 21 17 12 11 13 13 14 15 13 14 13 11 10 8 5 3 0 3 5 7 8 9 11 11 12
27 20 11 11 16 19 14 21 13 15 21 33 18 29 32 27 7 30 14 14 21 12 9 10 14 16 16 16 14 13 11 9 8 5 3 1 2 5 7 7 9 10 11 13
26 27 19 13 10 15 22 34 22 5 21 40 29 32 34 12 9 24 7 6 6 8 11 15 16 17 17 14 14 13 11 9 7 6 4 2 1 3 5 7 10 10 10 12
7 12 26 25 20 13 15 15 7 8 29 32 15 25 23 16 18 13 8 5 7 9 14 15 16 16 15 14 13 11 11 8 7 6 4 1 2 3 5 7 8 8 10 12
20 12 11 14 15 21 20 8 22 34 32 23 21 10 9 15 17 7 6 10 14 18 18 17 16 15 13 14 13 13 11 9 7 5 4 1 2 3 3 5 7 7 9 11
20 23 22 18 11 9 13 25 30 30 26 25 8 8 17 13 12 11 9 12 12 15 15 17 16 16 11 12 12 14 13 12 10 6 4 2 2 1 3 4 5 7 8 9
15 21 20 24 24 13 12 18 20 23 28 29 8 7 9 16 10 11 13 13 14 14 14 13 17 16 14 10 10 11 12 11 9 8 6 3 2 4 3 4 5 5 7 8
4 1 14 21 23 26 25 21 22 19 9 9 7 10 18 12 12 14 14 16 17 19 17 16 16 14 14 13 10 10 11 10 8 7 7 4 3 3 5 5 4 7 7 10
21 23 20 25 24 23 28 21 21 23 22 21 18 14 14 18 17 17 14 16 19 21 19 15 15 14 13 12 14 9 8 7 8 8 6 4 3 3 5 6 7 9 12 17
Wind_Direction
5 112 213 212 201 175 168 199 235 251 233 218 243 251 258 272 241 253 241 210 212 221 211 183 184 180 172 174 167 172 169 181 164 173 208 227 227 252 250 273 265 287 297 292
53 231 202 137 150 157 168 211 259 283 221 193 272 261 263 250 257 254 250 225 222 216 189 189 182 180 184 178 181 172 179 177 190 178 186 203 230 254 255 257 257 285 284 300
171 227 104 134 148 163 205 193 230 235 333 249 302 263 237 286 251 267 238 225 211 210 201 192 188 188 181 184 182 180 180 184 186 180 161 185 276 267 287 290 294 286 287 297
225 226 158 163 212 149 227 208 220 289 20 256 19 293 216 242 273 257 244 207 221 205 202 195 190 189 189 188 184 180 176 178 182 172 177 190 218 246 235 255 274 282 278 285
238 163 162 185 217 161 223 127 140 123 215 12 245 270 223 13 273 265 263 224 218 204 196 195 193 193 186 183 182 183 176 176 167 174 183 195 230 251 265 274 282 278 275 273
255 346 170 198 70 136 135 96 70 65 104 261 224 201 166 185 209 257 258 233 220 198 200 199 193 188 185 179 179 176 173 174 172 178 188 202 232 250 267 275 277 280 290 287
265 211 171 158 99 24 103 70 326 318 341 245 135 240 256 234 228 219 230 230 219 211 193 186 184 187 186 185 180 177 175 176 175 177 191 209 233 250 275 285 290 300 305 306
183 266 177 185 195 179 174 166 169 240 235 284 53 244 269 220 240 217 252 259 245 219 199 200 196 192 191 184 179 178 174 171 173 178 203 223 246 251 268 279 283 288 296 299
178 267 111 195 145 143 183 192 172 98 137 313 239 262 281 225 254 247 241 230 243 224 202 206 198 198 189 182 183 177 174 169 174 180 202 254 274 287 290 295 296 298 305 298
219 279 187 149 135 70 174 159 86 1 251 253 268 273 270 215 236 231 243 227 234 220 203 204 201 195 193 184 171 174 174 170 156 163 182 224 285 289 294 299 304 306 292 292
158 178 212 132 206 174 144 199 191 165 162 195 268 268 196 203 200 210 235 223 212 214 207 207 201 193 191 176 168 171 157 151 161 154 163 236 277 288 303 294 291 288 291 294
205 167 225 226 353 106 183 196 177 191 229 242 204 270 62 210 192 218 246 223 214 215 211 202 193 185 183 183 173 162 153 154 159 158 166 224 274 296 294 280 285 288 294 294
175 221 258 264 359 357 212 196 215 259 301 226 191 259 148 200 228 210 234 230 237 226 211 192 185 194 195 182 166 158 161 156 155 153 157 234 279 275 274 282 289 300 299 298
166 174 205 236 248 133 189 200 213 216 239 232 233 262 276 257 271 260 239 233 231 219 213 200 201 203 195 177 161 157 154 151 145 152 169 216 255 262 274 294 297 301 301 298
173 235 229 252 262 224 190 240 220 216 238 226 255 246 257 273 264 270 265 265 254 215 208 207 203 199 178 165 154 151 147 148 148 152 168 216 250 279 294 301 308 305 300 301
179 250 263 255 259 241 236 254 257 249 251 256 260 262 257 281 286 282 274 271 269 234 218 207 201 182 177 172 159 158 152 153 151 157 182 212 273 300 317 316 308 307 306 309
189 235 250 259 266 258 260 245 261 266 266 260 258 256 274 263 263 260 264 269 266 261 207 195 193 185 177 169 155 151 152 145 159 163 166 244 312 320 316 307 307 307 308 309
236 235 241 251 240 239 249 264 257 255 264 253 253 265 267 263 262 264 242 251 261 239 189 189 176 163 156 144 135 133 143 152 151 146 149 100 317 303 308 310 316 316 314 311
214 227 240 238 228 254 305 257 205 234 262 258 254 258 260 268 298 277 216 223 240 230 195 174 155 149 142 139 135 133 140 144 140 139 126 161 289 300 320 317 314 314 310 313
229 212 215 210 229 229 234 249 238 110 270 261 241 253 262 260 262 271 291 196 176 148 150 145 141 137 135 137 138 137 142 142 140 145 160 189 311 295 304 308 308 310 308 305
173 210 220 224 234 231 227 238 119 201 249 259 234 228 242 229 226 241 145 132 126 138 138 131 138 141 136 137 138 132 137 146 145 141 128 107 319 304 288 300 302 305 307 304
217 192 201 226 239 248 217 150 202 228 247 257 260 226 196 214 233 204 153 156 154 144 142 142 140 138 140 143 138 137 142 142 136 121 105 76 290 290 313 280 300 315 306 303
231 214 221 204 213 216 192 215 218 238 242 262 242 194 211 214 215 178 178 159 159 153 150 144 144 136 145 148 147 145 148 151 134 124 135 185 259 269 273 265 322 319 309 309
219 236 243 254 253 240 225 229 235 227 233 250 240 221 180 210 172 178 162 164 158 154 156 146 145 150 149 151 139 127 142 135 134 142 147 144 48 355 345 349 345 313 311 319
247 75 249 258 262 263 259 240 236 245 248 266 264 208 213 194 196 179 176 175 167 156 157 162 155 157 151 139 132 131 136 137 141 141 127 107 73 13 357 9 319 319 311 318
257 254 252 255 250 241 253 255 250 249 250 245 246 237 223 202 199 170 179 177 168 162 154 163 154 149 147 139 130 131 132 157 155 134 125 111 93 51 19 347 332 334 343 341